Time,TemperatureF,DewpointF,PressureIn,WindDirection,WindDirectionDegrees,WindSpeedMPH,WindSpeedGustMPH,Humidity,HourlyPrecipIn,Conditions,Clouds,dailyrainin,SoftwareType,DateUTC
2013-05-12 00:15:00,65.2,60.0,30.08,NNE,31,0.0,0.0,83,0.01,,,0.00,weatherlink.com 1.10,2013-05-12 05:15:00,
2013-05-12 00:30:00,64.1,60.0,30.08,NNE,31,0.0,0.0,86,0.00,,,0.00,weatherlink.com 1.10,2013-05-12 05:30:00,
2013-05-12 00:45:00,63.0,59.0,30.08,NNE,31,1.0,1.0,88,0.00,,,0.00,weatherlink.com 1.10,2013-05-12 05:45:00,
2013-05-12 01:00:00,62.5,59.0,30.08,NNE,31,0.0,1.0,89,0.00,,,0.00,weatherlink.com 1.10,2013-05-12 06:00:00,
2013-05-12 01:15:00,62.2,59.0,30.08,NNE,31,0.0,0.0,89,0.00,,,0.00,weatherlink.com 1.10,2013-05-12 06:15:00,
2013-05-12 01:30:00,61.3,58.0,30.07,NNE,31,0.0,0.0,90,0.00,,,0.00,weatherlink.com 1.10,2013-05-12 06:30:00,
2013-05-12 01:45:00,60.3,58.0,30.07,NNE,31,0.0,1.0,91,0.00,,,0.00,weatherlink.com 1.10,2013-05-12 06:45:00,
2013-05-12 02:00:00,59.7,57.0,30.07,NNE,31,0.0,0.0,91,0.00,,,0.00,weatherlink.com 1.10,2013-05-12 07:00:00,
2013-05-12 02:15:00,59.3,57.0,30.07,NNE,31,0.0,1.0,92,0.00,,,0.00,weatherlink.com 1.10,2013-05-12 07:15:00,
2013-05-12 02:30:00,59.2,57.0,30.07,NNE,31,0.0,0.0,92,0.00,,,0.00,weatherlink.com 1.10,2013-05-12 07:30:00,
2013-05-12 02:45:00,59.3,57.0,30.07,NNE,31,0.0,0.0,92,0.00,,,0.00,weatherlink.com 1.10,2013-05-12 07:45:00,
2013-05-12 03:00:00,58.7,57.0,30.07,NNE,31,0.0,0.0,93,0.00,,,0.00,weatherlink.com 1.10,2013-05-12 08:00:00,
2013-05-12 03:15:00,58.3,57.0,30.07,NNE,31,0.0,0.0,94,0.00,,,0.00,weatherlink.com 1.10,2013-05-12 08:15:00,
2013-05-12 03:30:00,57.8,56.0,30.08,NNE,31,0.0,1.0,93,0.00,,,0.00,weatherlink.com 1.10,2013-05-12 08:30:00,
2013-05-12 03:45:00,56.8,55.0,30.08,NNE,31,0.0,1.0,94,0.00,,,0.00,weatherlink.com 1.10,2013-05-12 08:45:00,
2013-05-12 04:00:00,57.0,56.0,30.09,NNE,31,0.0,1.0,95,0.00,,,0.00,weatherlink.com 1.10,2013-05-12 09:00:00,
2013-05-12 04:15:00,56.7,55.0,30.09,NNE,31,0.0,0.0,94,0.00,,,0.00,weatherlink.com 1.10,2013-05-12 09:15:00,
2013-05-12 04:30:00,56.4,55.0,30.09,NNE,31,0.0,0.0,95,0.00,,,0.00,weatherlink.com 1.10,2013-05-12 09:30:00,
2013-05-12 04:45:00,55.8,54.0,30.09,NNE,31,0.0,0.0,95,0.00,,,0.00,weatherlink.com 1.10,2013-05-12 09:45:00,
2013-05-12 05:00:00,55.7,54.0,30.10,NNE,31,0.0,0.0,95,0.00,,,0.00,weatherlink.com 1.10,2013-05-12 10:00:00,
2013-05-12 05:15:00,55.8,54.0,30.10,NNE,31,0.0,0.0,95,0.00,,,0.00,weatherlink.com 1.10,2013-05-12 10:15:00,
2013-05-12 05:30:00,55.9,55.0,30.10,NNE,31,1.0,1.0,95,0.00,,,0.00,weatherlink.com 1.10,2013-05-12 10:30:00,
2013-05-12 05:45:00,57.6,57.0,30.10,NNE,31,0.0,2.0,96,0.00,,,0.00,weatherlink.com 1.10,2013-05-12 10:45:00,
2013-05-12 06:00:00,55.9,54.0,30.10,NNE,31,0.0,0.0,94,0.00,,,0.00,weatherlink.com 1.10,2013-05-12 11:00:00,
2013-05-12 06:15:00,55.8,54.0,30.11,NNE,31,0.0,0.0,95,0.00,,,0.00,weatherlink.com 1.10,2013-05-12 11:15:00,
2013-05-12 06:30:00,56.0,55.0,30.11,NNE,31,0.0,0.0,95,0.00,,,0.00,weatherlink.com 1.10,2013-05-12 11:30:00,
2013-05-12 06:45:00,58.6,57.0,30.12,NE,46,2.0,6.0,94,0.00,,,0.00,weatherlink.com 1.10,2013-05-12 11:45:00,
2013-05-12 07:00:00,60.6,57.0,30.13,NNW,348,3.0,5.0,88,0.00,,,0.00,weatherlink.com 1.10,2013-05-12 12:00:00,
2013-05-12 07:16:00,60.9,56.0,30.14,North,5,4.0,11.0,85,0.00,,,0.00,weatherlink.com 1.10,2013-05-12 12:16:00,
2013-05-12 07:31:00,61.3,56.0,30.15,NNE,30,3.0,7.0,82,0.00,,,0.00,weatherlink.com 1.10,2013-05-12 12:31:00,
2013-05-12 07:46:00,62.2,56.0,30.15,NNW,331,0.0,7.0,80,0.00,,,0.00,weatherlink.com 1.10,2013-05-12 12:46:00,
2013-05-12 08:01:00,62.7,55.0,30.16,NE,36,2.0,8.0,76,0.00,,,0.00,weatherlink.com 1.10,2013-05-12 13:01:00,
2013-05-12 08:16:00,63.3,55.0,30.16,NNW,330,3.0,6.0,74,0.00,,,0.00,weatherlink.com 1.10,2013-05-12 13:16:00,
2013-05-12 08:31:00,63.6,54.0,30.17,NW,323,3.0,11.0,72,0.00,,,0.00,weatherlink.com 1.10,2013-05-12 13:31:00,
2013-05-12 08:46:00,63.3,54.0,30.17,NNW,344,5.0,7.0,72,0.00,,,0.00,weatherlink.com 1.10,2013-05-12 13:46:00,
2013-05-12 09:01:00,63.2,53.0,30.17,NW,319,5.0,8.0,70,0.00,,,0.00,weatherlink.com 1.10,2013-05-12 14:01:00,
2013-05-12 09:16:00,63.3,53.0,30.18,NW,321,3.0,9.0,70,0.01,,,0.01,weatherlink.com 1.10,2013-05-12 14:16:00,
2013-05-12 09:31:00,64.3,53.0,30.18,NW,312,5.0,9.0,67,0.01,,,0.01,weatherlink.com 1.10,2013-05-12 14:31:00,
2013-05-12 09:46:00,64.7,52.0,30.18,North,360,6.0,12.0,64,0.01,,,0.01,weatherlink.com 1.10,2013-05-12 14:46:00,
2013-05-12 10:01:00,65.6,52.0,30.18,NNE,31,3.0,7.0,62,0.01,,,0.01,weatherlink.com 1.10,2013-05-12 15:01:00,
2013-05-12 10:16:00,66.7,52.0,30.19,NE,41,3.0,11.0,59,0.00,,,0.01,weatherlink.com 1.10,2013-05-12 15:16:00,
2013-05-12 10:31:00,66.7,53.0,30.18,ENE,63,2.0,9.0,61,0.00,,,0.01,weatherlink.com 1.10,2013-05-12 15:31:00,
2013-05-12 10:46:00,66.5,52.0,30.18,North,5,3.0,6.0,60,0.00,,,0.01,weatherlink.com 1.10,2013-05-12 15:46:00,
2013-05-12 11:01:00,67.1,52.0,30.18,North,5,4.0,6.0,59,0.00,,,0.01,weatherlink.com 1.10,2013-05-12 16:01:00,
2013-05-12 11:16:00,68.2,52.0,30.19,North,360,4.0,7.0,57,0.00,,,0.01,weatherlink.com 1.10,2013-05-12 16:16:00,
2013-05-12 11:31:00,69.2,53.0,30.19,West,263,3.0,6.0,56,0.00,,,0.01,weatherlink.com 1.10,2013-05-12 16:31:00,
2013-05-12 11:46:00,69.3,53.0,30.19,West,279,2.0,8.0,57,0.00,,,0.01,weatherlink.com 1.10,2013-05-12 16:46:00,
2013-05-12 12:01:00,69.9,54.0,30.19,North,5,4.0,8.0,57,0.00,,,0.01,weatherlink.com 1.10,2013-05-12 17:01:00,
2013-05-12 12:16:00,70.8,54.0,30.18,North,5,3.0,6.0,55,0.00,,,0.01,weatherlink.com 1.10,2013-05-12 17:16:00,
2013-05-12 12:31:00,70.9,53.0,30.18,NNE,19,1.0,8.0,54,0.00,,,0.01,weatherlink.com 1.10,2013-05-12 17:31:00,
2013-05-12 12:46:00,71.0,54.0,30.19,NNW,337,3.0,6.0,55,0.00,,,0.01,weatherlink.com 1.10,2013-05-12 17:46:00,
2013-05-12 13:01:00,71.5,55.0,30.19,NW,321,1.0,7.0,56,0.00,,,0.01,weatherlink.com 1.10,2013-05-12 18:01:00,
2013-05-12 13:16:00,72.5,54.0,30.19,NW,321,5.0,8.0,52,0.00,,,0.01,weatherlink.com 1.10,2013-05-12 18:16:00,
2013-05-12 13:31:00,71.9,53.0,30.18,NNW,344,1.0,6.0,52,0.00,,,0.01,weatherlink.com 1.10,2013-05-12 18:31:00,
2013-05-12 13:46:00,71.7,55.0,30.18,NNW,341,1.0,8.0,56,0.00,,,0.01,weatherlink.com 1.10,2013-05-12 18:46:00,
2013-05-12 14:01:00,72.6,54.0,30.17,North,349,1.0,9.0,53,0.00,,,0.01,weatherlink.com 1.10,2013-05-12 19:01:00,
2013-05-12 14:16:00,72.6,56.0,30.17,North,5,4.0,8.0,57,0.00,,,0.01,weatherlink.com 1.10,2013-05-12 19:16:00,
2013-05-12 14:31:00,73.4,57.0,30.17,NW,306,1.0,6.0,56,0.00,,,0.01,weatherlink.com 1.10,2013-05-12 19:31:00,
2013-05-12 14:46:00,72.4,55.0,30.16,NNE,30,1.0,6.0,54,0.00,,,0.01,weatherlink.com 1.10,2013-05-12 19:46:00,
2013-05-12 15:01:00,72.5,56.0,30.15,NNW,329,3.0,6.0,56,0.00,,,0.01,weatherlink.com 1.10,2013-05-12 20:01:00,
2013-05-12 15:16:00,73.6,56.0,30.14,NNE,16,3.0,8.0,54,0.00,,,0.01,weatherlink.com 1.10,2013-05-12 20:16:00,
2013-05-12 15:31:00,73.4,55.0,30.15,NNE,30,4.0,7.0,52,0.00,,,0.01,weatherlink.com 1.10,2013-05-12 20:31:00,
2013-05-12 15:46:00,74.2,55.0,30.14,NNW,343,2.0,9.0,52,0.00,,,0.01,weatherlink.com 1.10,2013-05-12 20:46:00,
2013-05-12 16:01:00,74.2,55.0,30.14,NNE,13,3.0,7.0,51,0.00,,,0.01,weatherlink.com 1.10,2013-05-12 21:01:00,
2013-05-12 16:16:00,75.0,56.0,30.13,WNW,302,2.0,5.0,52,0.00,,,0.01,weatherlink.com 1.10,2013-05-12 21:16:00,
2013-05-12 16:31:00,74.6,54.0,30.12,NW,313,3.0,6.0,48,0.00,,,0.01,weatherlink.com 1.10,2013-05-12 21:31:00,
2013-05-12 16:46:00,74.7,56.0,30.12,NNE,25,3.0,10.0,53,0.00,,,0.01,weatherlink.com 1.10,2013-05-12 21:46:00,
2013-05-12 17:01:00,74.5,55.0,30.12,NW,323,2.0,9.0,51,0.00,,,0.01,weatherlink.com 1.10,2013-05-12 22:01:00,
2013-05-12 17:16:00,74.8,54.0,30.11,North,350,1.0,9.0,48,0.00,,,0.01,weatherlink.com 1.10,2013-05-12 22:16:00,
2013-05-12 17:31:00,74.4,53.0,30.11,NE,37,7.0,10.0,48,0.00,,,0.01,weatherlink.com 1.10,2013-05-12 22:31:00,
2013-05-12 17:46:00,73.4,53.0,30.10,NNE,23,3.0,5.0,49,0.00,,,0.01,weatherlink.com 1.10,2013-05-12 22:46:00,
2013-05-12 18:01:00,73.8,52.0,30.11,NE,53,6.0,8.0,46,0.00,,,0.01,weatherlink.com 1.10,2013-05-12 23:01:00,
2013-05-12 18:17:00,73.2,50.0,30.11,NNW,341,2.0,8.0,44,0.00,,,0.01,weatherlink.com 1.10,2013-05-12 23:17:00,
2013-05-12 18:32:00,73.1,50.0,30.11,NNE,12,3.0,5.0,45,0.00,,,0.01,weatherlink.com 1.10,2013-05-12 23:32:00,
2013-05-12 18:47:00,72.3,51.0,30.11,NNE,22,0.0,5.0,48,0.00,,,0.01,weatherlink.com 1.10,2013-05-12 23:47:00,
2013-05-12 19:02:00,71.5,52.0,30.11,NNE,22,0.0,2.0,51,0.00,,,0.01,weatherlink.com 1.10,2013-05-13 00:02:00,
2013-05-12 19:17:00,70.3,53.0,30.11,NNE,30,0.0,2.0,55,0.00,,,0.01,weatherlink.com 1.10,2013-05-13 00:17:00,
2013-05-12 19:32:00,68.8,55.0,30.11,NW,319,0.0,1.0,61,0.00,,,0.01,weatherlink.com 1.10,2013-05-13 00:32:00,
2013-05-12 19:47:00,66.9,55.0,30.12,NW,319,0.0,0.0,65,0.00,,,0.01,weatherlink.com 1.10,2013-05-13 00:47:00,
2013-05-12 20:02:00,65.2,54.0,30.12,NW,319,0.0,0.0,68,0.00,,,0.01,weatherlink.com 1.10,2013-05-13 01:02:00,
2013-05-12 20:17:00,64.5,53.0,30.12,ENE,59,0.0,2.0,66,0.00,,,0.01,weatherlink.com 1.10,2013-05-13 01:17:00,
2013-05-12 20:32:00,63.2,53.0,30.12,ENE,59,0.0,1.0,70,0.00,,,0.01,weatherlink.com 1.10,2013-05-13 01:32:00,
2013-05-12 20:47:00,61.9,54.0,30.13,ENE,59,0.0,0.0,75,0.00,,,0.01,weatherlink.com 1.10,2013-05-13 01:47:00,
2013-05-12 21:02:00,61.2,53.0,30.14,ENE,59,0.0,0.0,75,0.00,,,0.01,weatherlink.com 1.10,2013-05-13 02:02:00,
2013-05-12 21:17:00,61.2,53.0,30.14,ENE,59,0.0,1.0,74,0.00,,,0.01,weatherlink.com 1.10,2013-05-13 02:17:00,
2013-05-12 21:32:00,60.7,53.0,30.15,ENE,59,0.0,0.0,76,0.00,,,0.01,weatherlink.com 1.10,2013-05-13 02:32:00,
2013-05-12 21:47:00,59.2,53.0,30.16,ENE,59,0.0,2.0,79,0.00,,,0.01,weatherlink.com 1.10,2013-05-13 02:47:00,
2013-05-12 22:02:00,58.1,52.0,30.16,ENE,59,0.0,1.0,81,0.00,,,0.01,weatherlink.com 1.10,2013-05-13 03:02:00,
2013-05-12 22:17:00,56.2,52.0,30.17,ENE,59,0.0,1.0,85,0.00,,,0.01,weatherlink.com 1.10,2013-05-13 03:17:00,
2013-05-12 22:32:00,55.7,52.0,30.17,ENE,59,0.0,1.0,87,0.00,,,0.01,weatherlink.com 1.10,2013-05-13 03:32:00,
2013-05-12 22:47:00,55.3,52.0,30.17,ENE,59,0.0,1.0,88,0.00,,,0.01,weatherlink.com 1.10,2013-05-13 03:47:00,
2013-05-12 23:02:00,54.7,52.0,30.18,ENE,59,0.0,0.0,90,0.00,,,0.01,weatherlink.com 1.10,2013-05-13 04:02:00,
2013-05-12 23:17:00,54.0,51.0,30.18,ENE,59,0.0,0.0,90,0.00,,,0.01,weatherlink.com 1.10,2013-05-13 04:17:00,
2013-05-12 23:32:00,54.3,52.0,30.18,ENE,59,0.0,0.0,90,0.00,,,0.01,weatherlink.com 1.10,2013-05-13 04:32:00,
2013-05-12 23:47:00,53.7,51.0,30.18,ENE,59,0.0,0.0,90,0.00,,,0.01,weatherlink.com 1.10,2013-05-13 04:47:00,